Weather History for Billings, MT

Change the Weather History Date:

Monday, June 24, 2013

  Actual Average Record
Temperature  
Mean Temperature 70 °F 67 °F  
Max Temperature 86 °F 80 °F 101 °F (1936)
Min Temperature 54 °F 54 °F 41 °F (1953)
Degree Days  
Heating Degree Days 0 2  
Month to date heating degree days 73 87  
Since 1 June heating degree days 73 87  
Since 1 July heating degree days 6420 6773  
Cooling Degree Days 5 4  
Month to date cooling degree days 39 55  
Year to date cooling degree days 66 72  
Since 1 June cooling degree days 39 55  
Growing Degree Days 20 (Base 50)    
Moisture  
Dew Point 49 °F    
Average Humidity 53    
Maximum Humidity 77    
Minimum Humidity 29    
Precipitation  
Precipitation T in 0.06 in 2.60 in (1938)
Month to date precipitation 0.74 1.77  
Year to date precipitation 7.18 7.63  
Snow  
Snow 0.00 in 0.00 in T in (1991)
Month to date snowfall 0.0 0.0  
Since 1 June snowfall 0.0 0.0  
Since 1 July snowfall 40.4 55.0  
Snow Depth 0.00 in    
Sea Level Pressure  
Sea Level Pressure 29.58 in    
Wind  
Wind Speed 7 mph (NNE)    
Max Wind Speed 36 mph    
Max Gust Speed 48 mph    
Visibility 10 miles    
Events Rain , Thunderstorm    
T = Trace of Precipitation, MM = Missing Value Source: NWS Daily Summary

Daily Weather History Graph

Daily Weather History Graph

Search for Another Location

Airport:

Trip Planner

Search our weather history database for the weather conditions in past years. The results will help you decide how hot, cold, wet, or windy it might be!

Date:

Astronomy

Jun. 24, 2013 Rise Set
Actual Time 5:25 AM MDT 9:08 PM MDT
Civil Twilight 4:46 AM MDT 9:46 PM MDT
Nautical Twilight 3:55 AM MDT 10:38 PM MDT
Astronomical Twilight 2:44 AM MDT 11:49 PM MDT
Moon 10:05 PM MDT (6/24) 7:02 AM MDT (6/24)
Length of Visible Light 16h 59m
Length of Day
15h 43m
Full, 97% of the Moon is Illuminated
Jun 24
Full
Jun 29
Last Quarter
Jul 8
New
Jul 15
First Quarter
Jul 22
Full

Hourly Weather History & Observations

Time (MDT) Temp. Heat Index Dew Point Humidity Pressure Visibility Wind Dir Wind Speed Gust Speed Precip Events Conditions
12:53 AM 62.1 °F - 45.0 °F 53% 29.67 in 10.0 mi North 5.8 mph - N/A   Clear
1:53 AM 60.1 °F - 45.0 °F 57% 29.67 in 10.0 mi North 6.9 mph - N/A   Clear
2:53 AM 60.1 °F - 45.0 °F 57% 29.65 in 10.0 mi North 3.5 mph - N/A   Clear
3:53 AM 57.0 °F - 45.0 °F 64% 29.63 in 10.0 mi North 4.6 mph - N/A   Clear
4:53 AM 57.9 °F - 45.0 °F 62% 29.63 in 10.0 mi NNE 3.5 mph - N/A   Partly Cloudy
5:53 AM 57.0 °F - 46.0 °F 67% 29.63 in 10.0 mi Calm Calm - N/A   Partly Cloudy
6:53 AM 55.9 °F - 48.0 °F 75% 29.63 in 10.0 mi SSW 4.6 mph - N/A   Partly Cloudy
7:53 AM 59.0 °F - 48.9 °F 69% 29.64 in 10.0 mi SW 5.8 mph - N/A   Scattered Clouds
8:53 AM 62.1 °F - 50.0 °F 65% 29.64 in 10.0 mi Calm Calm - N/A   Scattered Clouds
9:53 AM 64.0 °F - 50.0 °F 60% 29.64 in 10.0 mi SW 6.9 mph - N/A   Mostly Cloudy
10:53 AM 69.1 °F - 51.1 °F 53% 29.62 in 10.0 mi Variable 3.5 mph - N/A   Scattered Clouds
11:53 AM 73.0 °F - 50.0 °F 44% 29.59 in 10.0 mi ENE 5.8 mph - N/A   Scattered Clouds
12:53 PM 75.0 °F - 48.9 °F 40% 29.57 in 10.0 mi Variable 4.6 mph - N/A   Scattered Clouds
1:53 PM 79.0 °F - 51.1 °F 38% 29.55 in 10.0 mi ENE 9.2 mph - N/A   Partly Cloudy
2:53 PM 82.9 °F - 51.1 °F 33% 29.53 in 10.0 mi East 8.1 mph 16.1 mph N/A   Scattered Clouds
3:53 PM 82.9 °F - 52.0 °F 34% 29.53 in 10.0 mi East 10.4 mph - N/A   Mostly Cloudy
4:53 PM 84.0 °F - 48.0 °F 28% 29.49 in 10.0 mi East 12.7 mph - N/A   Scattered Clouds
5:53 PM 84.0 °F - 48.0 °F 28% 29.49 in 10.0 mi East 5.8 mph - N/A   Scattered Clouds
6:53 PM 82.0 °F 81.3 °F 54.0 °F 38% 29.50 in 10.0 mi NE 4.6 mph - N/A   Scattered Clouds
7:53 PM 80.1 °F 80.2 °F 55.9 °F 43% 29.50 in 10.0 mi NE 3.5 mph - N/A   Scattered Clouds
8:53 PM 80.1 °F 79.9 °F 53.1 °F 39% 29.51 in 10.0 mi East 4.6 mph - N/A   Scattered Clouds
9:53 PM 77.0 °F - 55.0 °F 47% 29.52 in 10.0 mi SSW 6.9 mph - N/A   Scattered Clouds
10:11 PM 77.0 °F - 48.9 °F 37% 29.63 in 10.0 mi West 12.7 mph - N/A   Scattered Clouds
10:53 PM 75.9 °F - 45.0 °F 33% 29.53 in 10.0 mi WNW 24.2 mph 31.1 mph N/A   Mostly Cloudy
11:02 PM 75.9 °F - 45.0 °F 33% 29.63 in 10.0 mi West 28.8 mph 40.3 mph N/A Thunderstorm Thunderstorm
11:53 PM 70.0 °F - 46.0 °F 42% 29.55 in 10.0 mi WNW 21.9 mph - 0.00 in Rain , Thunderstorm Light Thunderstorms and Rain